Weather Roundup
Issued by NWS

Home | Current Version | Previous Version | Text Only | Print | Product List | Glossary On
Versions: 1 2 3 4 5 6 7 8 9 10 11 12 13 14 15 16 17 18 19 20 21 22 23 24 25 26 27 28 29 30 31 32 33 34 35 36 37 38 39 40 41 42 43 44 45 46 47 48 49 50
750
NZUS93 KARX 261010
HRRWXR

CURRENT HOURLY OBSERVATIONS ACROSS
MUCH OF THE UPPER MISSISSIPPI VALLEY
NATIONAL WEATHER SERVICE LA CROSSE WI
500 AM CDT WED JUL 26 2017


...SOUTHEAST MINNESOTA...


CITY           SKY/WX    TMP DP  RH WIND       PRES   REMARKS
ROCHESTER      CLOUDY    71  69  93 S9        29.99R
ROCHESTER/MAYO FAIR      73  70  88 S7        29.98R
WINONA         CLOUDY    73  68  83 CALM      29.98S
AUSTIN         CLOUDY    72  66  83 S3        29.98S
ALBERT LEA     MOCLDY    75  72  88 W3        29.99R
DODGE CENTER   CLOUDY    73  70  88 S7        29.99R THUNDER
PRESTON        CLOUDY    70  66  88 S9        30.01R
OWATONNA       TSTM      73  72  94 N9G24     29.99R
FARIBAULT      TSTM      70  68  94 N5        30.02R
$$

...ELSEWHERE IN MINNESOTA...


CITY           SKY/WX    TMP DP  RH WIND       PRES   REMARKS
MINNEAPOLIS    LGT RAIN  73  70  90 E6        29.98F
INTNL FALLS    PTCLDY    58  55  90 W5        29.94R
DULUTH         CLOUDY    65  64  97 NW5       29.94R
RED WING       TSTM      72  68  88 W14G20    29.99R
REDWOOD FALLS  CLOUDY    71  68  90 SE8       29.96R
MANKATO        LGT RAIN  72  71  97 N12       29.97S
WORTHINGTON    LGT RAIN  70  68  93 NW5       30.00R
FAIRMONT       CLOUDY    76  74  93 NW7       29.97S
$$

...SOUTHWEST WISCONSIN...


CITY           SKY/WX    TMP DP  RH WIND       PRES   REMARKS
LA CROSSE      CLOUDY    75  70  84 S7        29.99R
PRAIRIE DU CHI CLOUDY    73  66  79 SE3       30.01S
BOSCOBEL       MOCLDY    70  67  90 SE3       30.03R
LONE ROCK      CLOUDY    69  66  90 CALM      30.04R
PLATTEVILLE    MOCLDY    69  69 100 S8        30.04F
FORT MC COY    CLOUDY    69  66  90 CALM      30.02R
MAUSTON-NEW LI MOSUNNY   71  67  87 SW6       30.00S
VIROQUA        FAIR      69  69  99 S6        30.03S
WIS DELLS      CLOUDY    69  62  79 SW8       30.04R
$$

...ELSEWHERE IN WISCONSIN...


CITY           SKY/WX    TMP DP  RH WIND       PRES   REMARKS
MILWAUKEE      CLOUDY    69  59  70 S9        30.07F
MADISON        MOCLDY    69  62  78 S10       30.05F
GREEN BAY      LGT RAIN  68  65  90 S10       30.01F
EAU CLAIRE     CLOUDY    71  69  93 S5        29.97R
BLACK RVR FLS  FAIR      68  68 100 CALM      30.00R
MEDFORD        CLOUDY    67  65  96 S7        29.98F
WAUSAU         CLOUDY    68  67  96 S8        29.99F
WIS RAPIDS     MOCLDY    69  66  90 S6        30.02F
MARSHFIELD     CLOUDY    68  65  90 S8        30.01S
RICE LAKE      CLOUDY    69  68  97 S5        29.98R FOG
$$

...NORTHEAST IOWA...


CITY           SKY/WX    TMP DP  RH WIND       PRES   REMARKS
WATERLOO       MOCLDY    71  68  90 S10       29.98F
DUBUQUE        PTCLDY    68  66  93 S12       30.03F
DECORAH        CLOUDY    72  68  88 S8        30.00S
MASON CITY     CLOUDY    71  69  93 S3        29.99S
CHARLES CITY   CLOUDY    70  70 100 S8        29.99F
OELWEIN        CLOUDY    70  70 100 S9        30.02S
$$

...ELSEWHERE IN IOWA...


CITY           SKY/WX    TMP DP  RH WIND       PRES   REMARKS
DES MOINES     CLOUDY    76  69  79 SE9       29.97F
IOWA CITY      CLOUDY    71  68  90 SE6       30.03F
FORT DODGE     CLOUDY    75  70  83 S5        29.99R
MARSHALLTOWN   CLOUDY    72  68  87 SE9       29.99F
CEDAR RAPIDS   NOT AVBL
$$

...NORTHERN ILLINOIS...


CITY           SKY/WX    TMP DP  RH WIND       PRES   REMARKS
CHICAGO-OHARE  MOCLDY    66  59  78 S8        30.10F
CHICAGO-MIDWAY MOCLDY    69  60  73 S6        30.10F
MOLINE         CLOUDY    71  66  84 SE6       30.04F
ROCKFORD       CLOUDY    67  61  81 S9        30.08F
PEORIA         PTCLDY    70  66  87 SE3       30.08F
$$

NOTE: "FAIR" INDICATES FEW OR NO CLOUDS BELOW 12,000 FEET WITH NO
SIGNIFICANT WEATHER AND/OR OBSTRUCTIONS TO VISIBILITY. WIND
SPEEDS ARE IN MILES-PER-HOUR.




USA.gov is the U.S. government's official web portal to all federal, state and local government web resources and services.